This is the latest recevied weather packets stored in our database for station/object W0AKO. If no packets are shown the sender has not sent any weather packets the latest 10 day(s).
| Time | Temp. | Humidity | Pressure | Rain* | Wind** | Luminosity | Snow |
|---|---|---|---|---|---|---|---|
| 1777916295 | 23.89° C | 10% | 1011.6 hPa | 0 mm | - | 366 W/m² | - |
| 1777915991 | 22.78° C | 10% | 1011.6 hPa | 0 mm | - | 592 W/m² | - |
| 1777915689 | 23.33° C | 10% | 1011.7 hPa | 0 mm | - | 408 W/m² | - |
| 1777915385 | 23.33° C | 10% | 1011.6 hPa | 0 mm | - | 488 W/m² | - |
| 1777915081 | 23.33° C | 10% | 1011.6 hPa | 0 mm | - | 519 W/m² | - |
| 1777914778 | 22.78° C | 10% | 1011.6 hPa | 0 mm | - | 519 W/m² | - |
| 1777914475 | 22.78° C | 10% | 1011.6 hPa | 0 mm | - | 424 W/m² | - |
| 1777914172 | 22.78° C | 10% | 1011.5 hPa | 0 mm | - | 472 W/m² | - |
| 1777913868 | 22.78° C | 10% | 1011.8 hPa | 0 mm | - | 437 W/m² | - |
| 1777913565 | 23.33° C | 10% | 1011.7 hPa | 0 mm | - | 388 W/m² | - |
| 1777913261 | 22.78° C | 10% | 1012 hPa | 0 mm | - | 384 W/m² | - |
| 1777912959 | 21.67° C | 10% | 1011.7 hPa | 0 mm | - | 347 W/m² | - |
| 1777912654 | 21.11° C | 10% | 1011.7 hPa | 0 mm | - | 335 W/m² | - |
| 1777912350 | 21.11° C | 10% | 1011.9 hPa | 0 mm | - | 409 W/m² | - |
| 1777912047 | 21.11° C | 10% | 1011.9 hPa | 0 mm | - | 461 W/m² | - |
| 1777911743 | 20.56° C | 10% | 1012.1 hPa | 0 mm | - | 340 W/m² | - |
| 1777911440 | 20.56° C | 10% | 1012.1 hPa | 0 mm | - | 321 W/m² | - |
| 1777911136 | 20.56° C | 10% | 1012.1 hPa | 0 mm | - | 250 W/m² | - |
| 1777910834 | 20.56° C | 10% | 1012.2 hPa | 0 mm | - | 223 W/m² | - |
| 1777910531 | 20.56° C | 10% | 1012.3 hPa | 0 mm | - | 329 W/m² | - |
| 1777910228 | 20° C | 10% | 1012.3 hPa | 0 mm | - | 277 W/m² | - |
| 1777909925 | 20° C | 10% | 1012.5 hPa | 0 mm | - | 210 W/m² | - |
| 1777909621 | 20° C | 10% | 1012 hPa | 0 mm | - | 187 W/m² | - |
| 1777909319 | 20° C | 10% | 1011.9 hPa | 0 mm | - | 174 W/m² | - |
| 1777909016 | 19.44° C | 10% | 1012 hPa | 0 mm | - | 176 W/m² | - |
* Rain latest hour (hover to see other rain measurements)
** Current wind speed in m/s (hover to see current wind gust speed)